+ View the NASA Portal
+ Center for Near-Earth Object Studies
IMPORTANT:
The SSD Announcement email list is now available. Major changes are coming in the near future, including possible hostname and/or URL changes. To be notified of such changes, subscribe to this email list.
Please visit
this page
for more details.
Don't show this message again
JPL Small-Body Database Browser
Search:
[
help
]
46408 (2002 FO3)
Classification:
Main-belt Asteroid
SPK-ID:
2046408
[
Ephemeris
|
Orbit Diagram
|
Orbital Elements
|
Mission Design
|
Physical Parameters
|
Discovery Circumstances
|
Close-Approach Data
]
[ show orbit diagram ]
Orbital Elements at Epoch 2458600.5 (2019-Apr-27.0) TDB
Reference:
JPL 20
(heliocentric ecliptic J2000)
Element
Value
Uncertainty (1-sigma)
Units
e
.2308743005884245
4.9664e-08
a
2.689510659311927
1.3253e-08
au
q
2.068571766918173
1.3623e-07
au
i
.6887584353935436
6.126e-06
deg
node
337.2169366984061
0.0003323
deg
peri
226.338471987673
0.00033253
deg
M
308.4375285883078
1.2918e-05
deg
t
p
2458831.248855692024
(2019-Dec-13.74885569)
5.8798e-05
TDB
period
1611.047449333315
4.41
1.1908e-05
3.26e-08
d
yr
n
.2234571055923743
1.6517e-09
deg/d
Q
3.310449551705681
1.6313e-08
au
Orbit Determination Parameters
# obs. used (total)
760
data-arc span
14148 days (38.74 yr)
first obs. used
1980-04-14
last obs. used
2019-01-08
planetary ephem.
DE431
SB-pert. ephem.
SB431-N16
condition code
0
norm. resid. RMS
.55581
source
ORB
producer
Otto Matic
solution date
2019-Jul-13 02:37:33
Additional Information
Earth MOID
= 1.0655 au
Jupiter MOID
= 1.65322 au
T_jup
= 3.334
[ show covariance matrix ]
[
Ephemeris
|
Orbit Diagram
|
Orbital Elements
|
Mission Design
|
Physical Parameters
|
Discovery Circumstances
|
Close-Approach Data
]
Physical Parameter Table
Parameter
Symbol
Value
Units
Sigma
Reference
Notes
absolute magnitude
H
15.2
n/a
MPO436106
diameter
diameter
4.720
km
0.228
urn:nasa:pds:neowise_diameters_albedos::2.0[mainbelt] (http://adsabs.harvard.edu/abs/2011ApJ...741...68M)
geometric albedo
albedo
0.060
0.012
urn:nasa:pds:neowise_diameters_albedos::2.0[mainbelt] (http://adsabs.harvard.edu/abs/2011ApJ...741...68M)
46408 (2002 FO3)
Discovered 2002-Mar-19 by Fountain Hills at Fountain Hills
Reference:
20020822/Numbers.arc
Last Updated:
2004-04-19
[ show close-approach data ]
Alternate Designations
2002 FO3
= 1980 GA1
[
Ephemeris
|
Orbit Diagram
|
Orbital Elements
|
Mission Design
|
Physical Parameters
|
Discovery Circumstances
|
Close-Approach Data
]
2019-Dec-10 19:07 UT
(server date/time)
Site Manager:
Ryan S. Park
Webmaster
:
Alan B. Chamberlin